Home > Weather > Yazd > Past weeks

Flag for Iran Weather for the Past 2 Weeks in Yazd, Iran

Now
70 °F

Clear.


Feels Like: 70 °F
Forecast: 67 / 94 °F
Wind: 5 mph from Northwest

Location: Yazd Airport

Current Time: May 4, 2016 at 6:37:29 AM

Latest Report: May 4, 2016 at 6:00 AM


Visibility: 10 mi

Pressure: 29.98 "Hg (26.02 "Hg at 1218m altitude)

Humidity: 27%

Dew Point: 34 °F

Location of YazdLocation

Historic Weather in Yazd — Graph

°F

Yazd Temperature Yesterday

Maximum temperature yesterday: 86 °F (at 4:00 PM)
Minimum temperature yesterday: 64 °F (at 4:30 AM)
Average temperature yesterday: 77 °F

High & Low Weather Summary for the Past Weeks

 TemperatureHumidityPressure
High95 °F (Apr 28, 3:30 PM)71% (Apr 19, 6:00 AM)30.27 "Hg (Apr 19, 6:00 AM)
Low48 °F (Apr 19, 5:30 AM)5% (Apr 22, 2:20 PM)29.86 "Hg (Apr 29, 6:00 PM)
Average75 °F20%30.04 "Hg
* Reported Apr 19 5:30 AM — May 4 5:30 AM, Yazd, Weather by CustomWeather, © 2016

Note: Actual official high and low records may vary slightly from our data, if they occured in-between our weather recording intervals... More about our weather records

Advertising

Yazd Weather History for the Previous 24 Hours

Scroll right to see more
 ConditionsComfort  
Time TempWeatherWind HumidityBarometerVisibility
5:30 AM
Wed, May 4
70 °FClear.5 mph27%29.98 "Hg10 mi
4:30 AM70 °FClear.2 mph27%29.95 "Hg10 mi
3:30 AM73 °FPassing clouds.5 mph23%29.98 "HgN/A
2:30 AM75 °FPassing clouds.7 mph22%29.98 "HgN/A
1:30 AM77 °FPassing clouds.5 mph21%29.98 "HgN/A
12:30 AM77 °FPassing clouds.5 mph21%29.98 "HgN/A
11:30 PM
Tue, May 3
79 °FPartly cloudy.5 mph20%29.98 "HgN/A
11:00 PM79 °FPassing clouds.5 mph20%29.98 "HgN/A
10:30 PM79 °FPartly cloudy.5 mph18%29.98 "HgN/A
10:00 PM81 °FPartly cloudy.2 mph17%29.98 "HgN/A
9:30 PM81 °FPartly cloudy.2 mph17%29.98 "HgN/A
9:00 PM82 °FBroken clouds.2 mph16%29.98 "HgN/A
8:30 PM82 °FBroken clouds.2 mph16%29.98 "HgN/A
8:00 PM82 °FBroken clouds.5 mph17%29.95 "HgN/A
7:30 PM82 °FBroken clouds.5 mph17%29.95 "HgN/A
7:00 PM84 °FBroken clouds.5 mph16%29.95 "HgN/A
6:30 PM84 °FBroken clouds.5 mph16%29.95 "HgN/A
6:00 PM84 °FScattered clouds.2 mph16%29.95 "HgN/A
5:30 PM84 °FScattered clouds.7 mph18%29.95 "HgN/A
4:30 PM84 °FScattered clouds.5 mph18%29.95 "HgN/A
4:00 PM86 °FScattered clouds.7 mph17%29.98 "HgN/A
3:30 PM84 °FScattered clouds.5 mph18%29.98 "HgN/A
3:00 PM84 °FScattered clouds.7 mph18%29.98 "HgN/A
2:30 PM84 °FPassing clouds.5 mph19%30.01 "HgN/A
2:00 PM82 °FPassing clouds.5 mph20%30.01 "HgN/A
1:30 PM82 °FPassing clouds.5 mph20%30.04 "HgN/A
1:00 PM81 °FPassing clouds.5 mph21%30.07 "HgN/A
12:30 PM81 °FPassing clouds.5 mph23%30.07 "HgN/A
12:00 PM79 °FPassing clouds.5 mph24%30.07 "HgN/A
11:30 AM79 °FPassing clouds.2 mph24%30.09 "HgN/A
11:00 AM77 °FPassing clouds.2 mph28%30.09 "HgN/A
10:30 AM77 °FPassing clouds.2 mph28%30.09 "HgN/A
10:00 AM75 °FPassing clouds.2 mph31%30.09 "HgN/A
9:30 AM73 °FPassing clouds.2 mph33%30.09 "HgN/A
9:00 AM72 °FSunny.2 mph38%30.09 "Hg10 mi
8:30 AM72 °FSunny.2 mph38%30.09 "Hg10 mi
8:00 AM70 °FSunny.2 mph40%30.09 "Hg10 mi
7:30 AM68 °FClear.2 mph43%30.07 "Hg10 mi
7:00 AM66 °FClear.5 mph46%30.07 "Hg10 mi
6:00 AM64 °FClear.2 mph49%30.04 "Hg10 mi
Weather by CustomWeather, © 2016

See weather overviewHow to use our weather pages